www.pogodaiklimat.ru

Погода и климат >> Архив погоды >> Чехия >> Усти-над-Лабем


ПОГОДА в Усти-над-Лабем

  • Прогноз погоды в Усти-над-Лабем
  • Монитор погоды в Усти-над-Лабем

АРХИВ ПОГОДЫ в Усти-над-Лабем

Время (UTC), дата Ветер
(напр.,м/с)
 
Видим.   Явления Облачность Т
(С)
Тd
(С)
f
(%)
Тe
(С)
Тes
(С)
Комфортность P
(гПа)
Po
(гПа)
Тmin
(С)
Tmax
(С)
R
(мм)
R24
(мм)
S
(см)
16 9.06 Ю 4 35 км н/о +24.2 +8.3 36 +25 +25 комфорт 1019.4 976.3
17 9.06 ЮВ 1 35 км н/о +22.3 +9.6 44 +24 +24 комфорт 1019.5 976.2
18 9.06 В 2 >70 км 9/0
[Ac cast Cs]
+21.3 +8.3 43 +22 +23 комфорт 1019.4 975.9 +24.9
19 9.06 В 2 >70 км 10/0
[Ac cast Cs]
+20.2 +7.2 43 +22 +22 комфорт 1019.2 975.5
20 9.06 В 2 >70 км 9/0
[Ac cast]
+20.1 +8.1 46 +22 +22 комфорт 1018.6 975.0
21 9.06 В 2 35 км н/о +19.7 +10.5 55 +22 +22 комфорт 1018.2 974.6
22 9.06 В 2 35 км н/о +19.8 +11.7 60 +22 +22 комфорт 1018.3 974.7
23 9.06 В 3 35 км н/о +19.9 +12.6 63 +22 +22 комфорт 1018.0 974.4
00 10.06 В 3 35 км н/о +19.5 +12.8 65 +21 +21 комфорт 1017.4 973.8
01 10.06 В 2 35 км н/о +19.5 +13.0 66 +22 +22 комфорт 1017.1 973.5
02 10.06 В 2 35 км н/о +18.7 +12.8 69 +20 +20 1016.3 972.6
03 10.06 В 2 30 км н/о +18.0 +12.7 71 +19 +19 1015.9 972.1
04 10.06 ЮВ 2 35 км н/о +18.1 +12.7 71 +19 +19 1015.5 971.8
05 10.06 С 1 28 км н/о +17.6 +14.1 80 +19 +19 1015.3 971.5
06 10.06 нст 1 40 км 9/0
[Ac cast Cs]
+19.1 +14.4 74 +21 +25 комфорт 1014.8 971.3 +17.4
07 10.06 Ю 3 40 км 9/0
[Cs]
+20.0 +14.4 70 +22 +28 комфорт 1014.4 971.0
08 10.06 Ю 2 35 км 9/0
[Ac cast Cc]
+22.0 +15.3 66 +26 +33 душно 1013.7 970.7
09 10.06 ЮЗ 4 40 км слаб. дождь 9/0
[Ac und]
+21.6 +15.1 67 +25 +29 комфорт 1014.0 970.9
10 10.06 ЮЗ 2 30 км слаб. дождь 9/0
[Ac cast]
+19.6 +16.8 84 +22 +29 комфорт 1014.4 971.0
11 10.06 З 2 35 км в посл. час дождь 10/1 900 м
[Cu hum Ac As]
+21.5 +16.7 74 +25 +30 комфорт 1013.8 970.7
12 10.06 СВ 2 35 км в посл. час дождь 9/0 2000 м
[Ac cast Ci sp]
+23.9 +16.9 65 +28 +37 душно 1012.6 969.9 0.3
13 10.06 Ю 3 35 км 8/1 1050 м
[Cu med, cong Ac cast Ci fib]
+25.4 +17.2 60 +29 +36 душно 1012.0 969.5
14 10.06 Ю 3 50 км 9/1 1350 м
[Cu hum Ac cast Ci sp]
+25.9 +16.2 55 +29 +34 душно 1011.3 968.9
15 10.06 Ю 2 50 км 8/0
[Ac As Ci sp]
+26.7 +16.0 52 +30 +36 душно 1010.6 968.4
16 10.06 ЮВ 1 29 км н/о +26.1 +16.4 55 +30 +30 душно 1009.7 967.4
17 10.06 В 2 35 км н/о +24.8 +17.3 63 +29 +29 душно 1008.8 966.4
18 10.06 В 2 35 км гроза без осадков 9/4 900 м
[Cb calv Ac As Cs]
+23.5 +15.7 62 +27 +27 душно 1009.7 967.0 +27.1 0.3
19 10.06 В 3 30 км слаб. ливневой дождь, в посл. час гроза 10/1 900 м
[Cu hum Ac As]
+22.9 +16.9 69 +28 +28 душно 1009.2 966.5
20 10.06 В 3 30 км гроза без осадков 10/3 750 м
[Cb cap Ac As]
+23.9 +16.4 63 +27 +27 жарко 1008.7 966.2
21 10.06 нст 1 28 км {гроза, ливн. осадки} н/о +22.1 +17.3 74 +27 +27 душно 1009.4 966.6
22 10.06 З 7-12
{12}
500 м ливневой дождь н/о +17.2 +16.6 96 +16 +16 1012.6 968.9
23 10.06 В 6 15 км ливневой дождь н/о +16.3 +15.5 95 +15 +15 1008.5 964.9
00 11.06 ЮВ 4
{12}
14 км в посл. час дождь {гроза, ливн. осадки} н/о +16.0 +15.9 99 +15 +15 1010.5 966.7 14
01 11.06 СВ 2 11 км н/о +15.8 +15.6 99 +16 +16 1010.2 966.4
02 11.06 С 1 7000 м дымка н/о +15.7 +15.3 97 +16 +16 1009.7 965.9
03 11.06 В 3 23 км {дымка} н/о +16.6 +15.7 94 +16 +16 1009.4 965.8
04 11.06 В 4 20 км н/о +18.0 +16.9 93 +18 +18 1009.0 965.6
05 11.06 В 3 20 км н/о +19.1 +17.6 91 +21 +21 комфорт 1008.6 965.4
06 11.06 нст 1 27 км 1/1 600 м
[Cu hum Ci fib]
+20.3 +18.1 87 +25 +30 комфорт 1008.7 965.7 +15.3 14
07 11.06 З 2 20 км 3/1 750 м
[Cu hum Ci fib]
+21.1 +18.4 85 +25 +32 комфорт 1009.4 966.5
08 11.06 ЮЗ 3 19 км 3/1 1200 м
[Cu med, cong Ci fib]
+23.1 +18.9 77 +29 +37 очень
душно
1009.4 966.8
09 11.06 Ю 4 20 км 6/1 720 м
[Cu hum Ac trans Ci fib]
+23.6 +18.2 72 +28 +34 душно 1009.6 967.0
10 11.06 Ю 3 21 км 4/3 700 м
[Cu hum Ac trans Ci fib]
+24.2 +18.6 71 +29 +38 душно 1009.7 967.2
11 11.06 ЮЗ 2 30 км 6/1 900 м
[Cu hum Ac trans Ci sp]
+25.4 +17.2 60 +29 +41 душно 1009.3 967.0
12 11.06 ЮЗ 3 30 км 1/1 960 м
[Cu hum Ac trans Ci sp]
+26.2 +17.8 60 +31 +43 очень
душно
1008.9 966.7
13 11.06 ЮВ 2 30 км 1/1 1000 м
[Cu med, cong Ci sp]
+27.5 +19.2 61 +33 +46 очень
душно
1008.1 966.1
14 11.06 З 2 30 км 6/1 1080 м
[Cb calv Ci sp]
+28.6 +19.8 59 +35 +44 очень
душно
1007.5 965.7
15 11.06 З 2 30 км 4/1 1200 м
[Cb calv Ci sp]
+29.0 +19.2 55 +34 +41 очень
душно
1006.9 965.2
16 11.06 В 2 26 км н/о +29.8 +20.5 57 +37 +37 очень
душно
1006.3 964.7
17 11.06 В 2 28 км н/о +28.6 +18.7 55 +34 +34 очень
душно
1006.2 964.5
18 11.06 В 2 60 км 8/3 1200 м
[Cb cap Ac cuf Ci sp]
+26.8 +17.4 56 +31 +31 душно 1006.5 964.5 +30.2
19 11.06 В 2 45 км зарница 8/3 1260 м
[Cb cap Ac cuf Ci ing]
+25.8 +17.1 59 +30 +30 душно 1006.5 964.3
20 11.06 ЮВ 2 30 км зарница 4/3 1320 м
[Cb cap Ci ing]
+25.1 +16.1 57 +28 +28 жарко 1007.6 965.3
21 11.06 В 3 35 км н/о +24.4 +16.0 59 +28 +28 душно 1007.1 964.7
22 11.06 ЮВ 3
{11}
28 км н/о +23.5 +16.3 64 +27 +27 душно 1007.1 964.6
23 11.06 ЮВ 3 30 км н/о +22.6 +16.7 69 +27 +27 душно 1007.6 964.9
00 12.06 В 3
{11}
26 км {дымка} н/о +22.7 +16.4 68 +27 +27 душно 1007.5 964.8
01 12.06 В 2 28 км н/о +22.0 +16.2 70 +26 +26 душно 1007.5 964.7
02 12.06 В 3 35 км н/о +20.9 +16.2 74 +25 +25 комфорт 1007.7 964.8
03 12.06 В 3 27 км {дымка} н/о +20.6 +16.4 77 +24 +24 комфорт 1008.3 965.3
04 12.06 В 3 28 км н/о +19.9 +16.4 80 +23 +23 комфорт 1008.3 965.2
05 12.06 В 2 30 км н/о +20.7 +16.4 76 +25 +25 комфорт 1008.1 965.1
06 12.06 В 1 30 км 3/0
[Cc]
+21.9 +16.5 71 +26 +31 душно 1007.8 965.0 +19.6
07 12.06 ЮВ 2 30 км 4/1 1020 м
[Cu hum Cc]
+23.7 +17.6 69 +28 +34 душно 1007.3 964.8
08 12.06 Ю 3 30 км 1/0
[Ci fib]
+24.8 +17.3 63 +29 +38 душно 1007.0 964.7
09 12.06 ЮВ 3 30 км 1/0
[Ci fib]
+25.9 +17.3 59 +30 +42 душно 1006.6 964.4
10 12.06 Ю 4 30 км 1/0
[Ci sp]
+27.2 +16.9 53 +31 +42 душно 1006.0 964.0
11 12.06 Ю 4 30 км 1/1 1080 м
[Cu hum Cc]
+28.3 +16.8 50 +32 +43 душно 1005.7 963.9
12 12.06 Ю 4 40 км 1/1 1200 м
[Cu med, cong Cc]
+29.7 +17.0 46 +33 +44 душно 1005.1 963.5
13 12.06 ЮВ 3 45 км 1/1 1260 м
[Cb cap Cc]
+30.4 +16.3 43 +34 +45 очень
душно
1004.1 962.6
14 12.06 ЮВ 5 30 км 1/1 1200 м
[Cb cap Ci ing]
+31.1 +14.9 37 +33 +39 душно 1003.2 961.8
15 12.06 Ю 4
{12}
30 км осадки на расстоянии 4/1 1320 м
[Cb cap Ci ing]
+31.3 +15.4 38 +34 +38 душно 1003.2 961.9
16 12.06 Ю 7-13
{12}
35 км н/о +27.2 +14.6 46 +30 +30 душно 1004.4 962.5
17 12.06 СЗ 6-12
{19}
35 км в посл. час дождь {ливн. осадки} н/о +19.7 +16.2 80 +22 +22 комфорт 1007.7 964.6
18 12.06 С 5-11
{19}
>70 км [макс. диам. градин 11 мм] 8/6 1500 м
[Cb cap Ac cuf Ci ing]
+18.8 +15.1 79 +20 +20 1009.8 966.5 +31.5 9
19 12.06 С 5 >70 км слаб. ливневой дождь 8/5 1500 м
[Cb cap Ac As Ci ing]
+19.0 +12.3 65 +20 +20 1010.0 966.6
20 12.06 СВ 3 70 км 5/1 1500 м
[Cb cap Ac As Ci ing]
+18.3 +12.6 69 +19 +19 1011.0 967.5
21 12.06 В 3 35 км {ливн. осадки} н/о +17.4 +12.0 71 +17 +17 1011.5 967.8
22 12.06 СВ 3 35 км в посл. час дождь {ливн. осадки} н/о +17.5 +13.1 75 +18 +18 1012.6 968.9
23 12.06 С 5 30 км н/о +17.1 +14.7 86 +16 +16 1013.1 969.4
00 13.06 С 8
{13}
35 км {ливн. осадки, дождь} н/о +15.3 +10.0 71 +13 +13 1013.4 969.3 0.1
01 13.06 С 6
{11}
35 км н/о +15.4 +9.9 70 +14 +14 1013.3 969.2
02 13.06 С 2 35 км н/о +15.1 +10.6 74 +15 +15 1013.4 969.3
03 13.06 С 6
{11}
35 км слаб. ливневой дождь н/о +14.8 +10.4 75 +13 +13 1013.9 969.7
04 13.06 С 5 35 км {ливн. осадки} н/о +14.9 +10.4 74 +13 +13 1014.3 970.1
05 13.06 С 4 35 км в посл. час дождь {ливн. осадки} н/о +15.1 +11.1 77 +14 +14 1014.9 970.7
06 13.06 СВ 3
{11}
60 км 6/1 1500 м
[Cu med, cong Ac As]
+16.0 +12.4 79 +16 +18 1014.9 970.9 +14.6 0.1
07 13.06 С 5 >70 км 6/3 570 м
[Cb calv Ac As]
+16.2 +12.1 77 +15 +17 1015.8 971.8
08 13.06 СВ 3 >70 км 4/1 630 м
[Cu hum Ac cast]
+16.9 +12.5 75 +17 +23 1015.3 971.4
09 13.06 СВ 3 >70 км 4/4 660 м
[Cu hum Ac trans]
+19.0 +13.5 70 +20 +27 1015.1 971.5
10 13.06 СВ 3 >70 км 5/5 750 м
[Cu med, cong]
+19.2 +13.4 69 +21 +28 комфорт 1014.8 971.3
11 13.06 С 3 >70 км 4/4 840 м
[Cu med, cong]
+20.7 +14.2 66 +24 +33 комфорт 1014.6 971.3
12 13.06 СВ 2 >70 км 5/4 900 м
[Cu med, cong Ac cast]
+21.0 +13.3 61 +24 +33 комфорт 1014.5 971.2
13 13.06 СВ 2 >70 км 4/4 1050 м
[Cu med, cong Ac trans]
+22.0 +13.2 57 +25 +34 комфорт 1014.1 971.0
14 13.06 В 2 >70 км 4/4 1110 м
[Cu med, cong]
+22.8 +13.4 55 +26 +33 жарко 1013.8 970.8
15 13.06 СВ 2 >70 км 3/3 1140 м
[Cu med, cong Ac trans]
+22.9 +12.9 53 +26 +31 жарко 1013.8 970.8
16 13.06 СВ 2 35 км н/о +23.3 +12.8 52 +26 +26 жарко 1013.5 970.6
17 13.06 СВ 4 35 км н/о +22.6 +13.9 58 +26 +26 жарко 1013.1 970.1
18 13.06 В 3 70 км 1/1 900 м
[Cu hum]
+21.5 +13.9 62 +24 +25 комфорт 1013.5 970.4 +23.5
19 13.06 В 3 >70 км 1/1 900 м
[Sc diur, vesp]
+19.7 +14.1 70 +22 +22 комфорт 1014.4 971.0
20 13.06 В 3 65 км 4/0
[Ac cast]
+18.6 +13.9 74 +19 +19 1015.5 971.9
21 13.06 СВ 4 35 км н/о +18.3 +14.0 76 +19 +19 1015.8 972.1
22 13.06 В 1 35 км н/о +16.8 +14.1 84 +18 +18 1016.5 972.6
23 13.06 30 км н/о +16.1 +13.9 87 1016.9 972.8
00 14.06 В 1 30 км {дымка} н/о +16.0 +13.8 87 +17 +17 1017.4 973.3
01 14.06 23 км н/о +15.1 +13.9 93 1017.8 973.5
02 14.06 ЮВ 1 23 км н/о +14.8 +13.6 93 +15 +15 1018.2 973.9
03 14.06 В 1 22 км {дымка} н/о +14.5 +13.4 93 +15 +15 1018.7 974.3
04 14.06 25 км н/о +14.6 +13.7 94 1019.3 974.9
05 14.06 21 км н/о +15.8 +14.5 92 1019.2 975.0
06 14.06 Ю 1 30 км дым ясно +18.7 +16.2 85 +21 +26 комфорт 1019.0 975.3 +14.5
07 14.06 З 1 30 км дым 1/1 900 м
[Cu hum Ci fib]
+21.4 +16.6 74 +25 +33 комфорт 1018.8 975.5
08 14.06 В 3 45 км 1/1 960 м
[Cu hum Ci fib]
+23.4 +14.2 56 +27 +35 душно 1018.7 975.6
09 14.06 В 3 40 км 4/1 1050 м
[Cu hum Ci fib]
+24.4 +12.6 48 +26 +36 жарко 1018.5 975.5
10 14.06 ЮВ 2 >70 км 5/1 1200 м
[Cu hum Ci fib]
+25.4 +10.6 39 +26 +40 жарко 1018.3 975.5
11 14.06 ЮВ 3 >70 км 6/0
[Ci fib]
+26.4 +5.4 26 +26 +39 жарко 1017.8 975.1
12 14.06 ЮВ 2 >70 км 4/0
[Ci fib]
+27.4 +9.6 33 +28 +43 жарко 1017.1 974.6
13 14.06 ЮВ 3 >70 км 1/0
[Ac trans Ci sp]
+27.8 +8.7 30 +28 +39 жарко 1016.4 974.0
14 14.06 ЮВ 3 >70 км 1/0
[Ac trans Ci sp]
+28.7 +11.0 33 +29 +38 жарко 1015.9 973.6
15 14.06 ЮВ 2 >70 км 6/0
[Cs]
+28.4 +12.9 38 +30 +37 жарко 1015.7 973.4
16 14.06 В 2 35 км н/о +28.0 +11.3 35 +29 +29 жарко 1015.2 972.9
17 14.06 В 2 35 км н/о +27.1 +13.1 42 +29 +29 жарко 1014.6 972.2
18 14.06 В 2 >70 км 9/0
[Ac trans Cs]
+24.6 +11.1 43 +26 +26 жарко 1015.3 972.5 +28.9
19 14.06 В 4 >70 км 9/0
[Ac As Cs]
+24.1 +13.5 52 +26 +26 жарко 1014.2 971.4
20 14.06 В 2 60 км 5/0
[Ac trans Ci fib]
+23.4 +15.2 60 +28 +28 душно 1013.9 971.0
21 14.06 В 4 35 км н/о +23.9 +14.9 57 +27 +27 жарко 1013.6 970.8
22 14.06 В 4 30 км н/о +23.5 +16.8 66 +27 +27 душно 1013.8 971.0
23 14.06 В 4 22 км н/о +23.1 +17.7 72 +29 +29 очень
душно
1012.9 970.1
00 15.06 В 4 22 км н/о +22.6 +18.1 76 +28 +28 душно 1012.2 969.4
01 15.06 В 3 21 км н/о +22.9 +17.7 73 +28 +28 душно 1011.6 968.8
02 15.06 В 3 19 км н/о +22.3 +17.4 74 +27 +27 душно 1011.0 968.2
03 15.06 ЮВ 2 12 км н/о +22.0 +17.5 76 +27 +27 душно 1010.5 967.6
04 15.06 ЮВ 2 20 км н/о +22.0 +17.7 77 +27 +27 душно 1010.3 967.4
05 15.06 ЮВ 2 18 км н/о +22.5 +17.3 72 +27 +27 душно 1010.0 967.2
06 15.06 Ю 1 20 км 8/0 2000 м
[Ac und Ci fib]
+24.1 +18.7 72 +29 +31 душно 1009.8 967.3 +21.6
07 15.06 ЮЗ 2 25 км 10/0
[Ac As Cs]
+24.0 +17.7 68 +28 +32 душно 1010.1 967.5
08 15.06 Ю 2 25 км 10/0
[Ac trans Cs]
+24.4 +18.5 70 +29 +36 душно 1010.1 967.6
09 15.06 ЮЗ 3 28 км 10/0
[Ac As Cs]
+25.8 +18.5 64 +31 +37 очень
душно
1010.1 967.8
10 15.06 ЮЗ 3 25 км 9/0
[Ac trans Ci sp]
+27.0 +18.4 59 +32 +43 очень
душно
1010.0 967.9
11 15.06 З 2 27 км 9/1 1200 м
[Cu med, cong Ac As Ci sp]
+27.6 +18.3 57 +32 +41 очень
душно
1010.1 968.0
12 15.06 З 3 30 км 3/1 1500 м
[Cu med, cong Ac lent Ci sp]
+28.7 +17.0 49 +32 +44 душно 1009.8 967.9
13 15.06 З 4 35 км 3/1 1500 м
[Cb cap Ac trans Ci sp]
+29.3 +17.4 49 +33 +41 душно 1009.6 967.8
14 15.06 З 2 50 км 8/5 1500 м
[Cb calv Ac trans Ci sp]
+30.2 +17.8 47 +34 +39 очень
душно
1009.5 967.8
15 15.06 З 6 70 км осадки на расстоянии 5/4 1500 м
[Cb cap Ac cuf Ci ing]
+27.7 +15.7 48 +31 +33 душно 1009.3 967.2
16 15.06 С 6-11
{11}
35 км н/о +27.8 +14.8 45 +30 +30 жарко 1010.2 968.1
17 15.06 С 4
{11}
35 км н/о +26.2 +14.6 49 +29 +29 жарко 1011.0 968.6
18 15.06 С 4
{11}
>70 км 9/1 1200 м
[Cb calv Ac As Ci fib]
+25.0 +15.9 57 +28 +28 жарко 1010.8 968.3 +30.5
19 15.06 С 5 >70 км 9/1 1200 м
[Cb calv Ac cast Cs]
+23.1 +13.9 56 +27 +27 душно 1012.0 969.2
20 15.06 С 4 >70 км 9/0
[Ac cast Ci sp]
+22.2 +12.9 56 +25 +25 комфорт 1012.8 969.8
21 15.06 С 3
{12}
35 км н/о +21.7 +11.9 54 +24 +24 комфорт 1013.7 970.6
22 15.06 С 6
{12}
35 км н/о +21.0 +12.8 59 +23 +23 комфорт 1014.5 971.2
23 15.06 С 8
{13}
35 км н/о +19.6 +14.0 70 +21 +21 комфорт 1015.2 971.7
00 16.06 С 5
{14}
30 км н/о +18.9 +13.8 72 +20 +20 1015.6 972.0
01 16.06 С 8-14
{13}
35 км н/о +18.1 +13.5 74 +17 +17 1015.1 971.4
02 16.06 С 7-12
{15}
35 км н/о +17.3 +12.2 72 +16 +16 1015.5 971.6
03 16.06 С 9-16
{16}
35 км н/о +17.0 +11.3 69 +16 +16 1015.8 971.9
04 16.06 С 6-11
{14}
35 км н/о +16.9 +11.0 68 +16 +16 1016.7 972.7
05 16.06 С 6-11
{16}
35 км н/о +16.7 +10.8 68 +16 +16 1016.8 972.8
06 16.06 С 4
{16}
22 км сильн. дождь 9/1 600 м
[Cu hum Ac As]
+15.8 +12.2 79 +15 +16 1017.9 973.7 +15.7 0.6
07 16.06 СЗ 3 18 км слаб. дождь 10/1 800 м
[Cu hum Ac As]
+15.7 +12.1 79 +15 +17 1019.9 975.6
08 16.06 С 3 23 км в посл. час дождь 10/1 750 м
[Cu med, cong Ac As]
+15.2 +12.3 83 +14 +17 1021.0 976.6
09 16.06 С 4
{11}
70 км слаб. дождь 9/1 800 м
[Cu med, cong Ac As]
+16.0 +13.2 83 +15 +18 1019.9 975.7
10 16.06 С 3 >70 км в посл. час дождь 9/1 750 м
[Cu med, cong Ac As]
+16.0 +12.8 81 +16 +20 1020.2 976.0
11 16.06 С 5 >70 км 8/1 1050 м
[Cu med, cong Ac As Ci sp]
+18.6 +11.3 62 +19 +24 1020.1 976.2
12 16.06 С 3
{11}
>70 км {дождь} 5/1 1300 м
[Cu med, cong Ac As]
+20.4 +9.6 50 +22 +31 комфорт 1019.9 976.3 1
13 16.06 С 4 >70 км 6/1 1200 м
[Cu med, cong Ac As]
+20.5 +10.4 52 +22 +28 комфорт 1019.9 976.3
14 16.06 С 4 >70 км 4/1 1300 м
[Cu med, cong Ac lent Ci sp]
+21.4 +11.4 53 +23 +29 комфорт 1019.6 976.2

 

Местоположение метеостанции Усти-над-Лабем (Чехия): широта 50.68 долгота 14.03 высота над уровнем моря 379 м.

В архиве по умолчанию представлена погода в Усти-над-Лабем за последнюю неделю. Архивные данные за месяц целиком и за предыдущие месяцы, начиная с января 2011 года, Вы можете получить, выбрав интересующий диапазон дат из раскрывающегося списка и нажав кнопку "Ввод!".


*Определитесь, кто Вы:
робот инопланетянин человек

Внимание! Время в таблицах - всемирное. Для получения местного времени необходимо прибавить поправку, которая равна 1 ч.

Смотрите также архив погоды в соседних городах и на ближайших метеорологических станциях:

Погода в Милешовке (Чехия) (16 км)
Погода в Циннвальд-Георгенфельде (Германия) (20 км)
Погода в Докшанах (Чехия) (25 км)
Погода в Лихтенхайн-Миттельндорфе (Германия) (31 км)
Погода в Дрездене (Германия) (53 км)
Погода в Тушимице (Чехия) (60 км)
Погода в Мариенберге (Германия) (62 км)
Погода в Праге (Чехия) (66 км)
Погода в Либереце (Чехия) (70 км)
Погода в Прага аэропорту (Чехия) (72 км)

Пояснения к столбцам:

Ветер - указаны скорость ветра в м/с - средняя за 10 мин, порывы в срок и между сроками (в фигурных скобках) и направление, откуда дует ветер: С - северный, СВ - северо-восточный, В - восточный, ЮВ - юго-восточный, Ю - южный, ЮЗ - юго-западный, З - западный, СЗ - северо-западный.
Видимость - горизонтальная дальность видимости в метрах или километрах. При видимости от 1 до 10 км при отсутствии осадков обычно наблюдается дымка, при ухудшении видимости до 1 км и менее - туман. В сухую погоду видимость может ухудшаться дымом, пылью или мглою.
Явления - указаны атмосферные явления, наблюдавшиеся в срок или в последний час перед сроком; фигурными скобками обозначены явления, наблюдавшиеся между сроками (за 1-3 часа до срока); квадратными скобками обозначены град или гололедные отложения с указанием их диаметра в мм.
Облачность - указаны через наклонную черту общая и нижняя облачность в баллах и высота нижней границы облаков в метрах; квадратными скобками обозначены формы облаков: Ci - перистые, Cs - перисто-слоистые, Cc - перисто-кучевые, Ac - высококучевые, As - высокослоистые, Sc - слоисто-кучевые, Ns - слоисто-дождевые, Cu - кучевые, Cb - кучево-дождевые. Подробнее классификацию облаков см. в Атласе облаков (PDF).
T - Температура воздуха - температура, измеренная на высоте 2 м над землей.
Td - Температура точки росы - температура, при понижении до которой содержащийся в воздухе водяной пар достигнет насыщения.
f - Относительная влажность воздуха - влажноcть воздуха, измеренная на высоте 2 м над землей.
Te - Эффективная температура - температура, которую ощущает одетый по сезону человек в тени. Характеристика душности погоды. При расчете учитывается влияние влажности воздуха и скорости ветра на теплоощущения человека.
Tes - Эффективная температура на солнце - температура, которую ощущает человек, с поправкой на солнечный нагрев. Характеристика знойности погоды. Зависит от высоты солнца над горизонтом, облачности и скорости ветра. Ночью, в пасмурную погоду, а также при ветре 12 м/с и более поправка равна нулю.
P - Атмосферное давление - приведенное к уровню моря атмосферное давление.
Po - Атмосферное давление - измеренное на уровне метеостанции атмосферное давление.
Tmin - Минимальная температура - минимум температуры воздуха на высоте 2 м над землей.
Tmax - Максимальная температура - максимум температуры воздуха на высоте 2 м над землей.
R - Количество осадков - Количество выпавших осадков за период времени, мм. При наведении курсора мыши на число - период времени, за который выпало указанное количество осадков.
R24 - Количество осадков - Количество выпавших осадков за 24 часа, мм.
S - Снежный покров - Высота снежного покрова, см. При наведении курсора мыши на число - состояние снежного покрова и степень покрытия местности в баллах.